FW5830 Weather Reports


time (UTC)temp
F
wind
direction
speed
knots
gust
knots
rain 1hr
in
rain 24hr
in
rain mn
in
humidity
%
barometer
mb
20260505064556 45 120 0.0 0.9 0.00 0.08 0.00 86 1011.5
20260505063053 45 120 0.0 1.7 0.00 0.08 0.00 85 1011.4
20260505061556 45 120 0.0 1.7 0.00 0.08 0.00 84 1011.5
20260505060058 45 120 0.0 1.7 0.00 0.08 0.00 84 1011.6
20260505054554 45 120 0.0 1.7 0.00 0.08 0.08 83 1011.6
20260505053101 44 120 0.0 1.7 0.00 0.08 0.08 84 1011.4
20260505051549 44 120 0.0 0.9 0.00 0.08 0.08 84 1011.6
20260505041556 44 0 0.0 0.9 0.04 0.08 0.08 86 1012.1
20260505040055 44 0 0.0 2.6 0.06 0.08 0.08 86 1012.3
20260505034552 45 0 0.0 3.5 0.06 0.07 0.07 85 1012.2
20260505033052 45 68 1.7 7.0 0.04 0.05 0.05 84 1012.4
20260505031549 46 108 5.2 11.3 0.02 0.03 0.03 81 1012.2
20260505030049 48 163 4.3 7.0 0.01 0.02 0.02 75 1011.8
20260505024550 48 122 3.5 11.3 0.00 0.01 0.01 73 1011.5
20260505023056 49 116 4.3 7.8 0.00 0.01 0.01 71 1010.9
20260505021549 51 141 2.6 6.1 0.00 0.01 0.01 69 1010.7
20260505020056 50 0 0.0 0.0 0.00 0.01 0.01 68 1010.4
20260505014549 51 0 0.0 0.0 0.00 0.01 0.01 66 1010.4
20260505013051 51 0 0.0 0.9 0.00 0.01 0.01 66 1010.1
20260505011553 51 0 0.0 0.9 0.01 0.01 0.01 66 1010.2
20260505010051 51 319 0.0 0.9 0.01 0.01 0.01 69 1010.0
20260505004551 51 319 0.9 2.6 0.01 0.01 0.01 68 1010.1
20260505003051 52 324 2.6 6.1 0.01 0.01 0.01 64 1010.4
20260505001553 56 333 2.6 6.1 0.00 0.00 0.00 51 1010.7
20260505000047 56 111 2.6 10.4 0.00 0.00 0.00 45 1010.0
20260504234550 56 101 5.2 9.6 0.00 0.00 0.00 45 1009.9
20260504233050 56 129 7.8 12.2 0.00 0.00 0.00 45 1009.5
20260504231550 57 103 5.2 13.9 0.00 0.00 0.00 44 1009.5
20260504230047 57 151 13.9 22.6 0.00 0.00 0.00 44 1009.3
20260504224551 59 119 9.6 15.6 0.00 0.00 0.00 39 1009.0
20260504223045 58 94 9.6 18.2 0.00 0.00 0.00 42 1009.4
20260504221551 58 143 10.4 19.1 0.00 0.00 0.00 39 1009.3
20260504220110 59 89 11.3 21.7 0.00 0.00 0.00 37 1008.9
20260504214554 61 189 13.9 22.6 0.00 0.00 0.00 32 1008.5
20260504213053 65 179 2.6 7.0 0.00 0.00 0.00 27 1007.8
20260504211541 66 217 0.9 4.3 0.00 0.00 0.00 26 1008.0
20260504210041 69 224 0.9 3.5 0.00 0.00 0.00 24 1008.4
20260504204547 67 168 0.9 3.5 0.00 0.00 0.00 27 1008.5
20260504203054 65 113 4.3 11.3 0.00 0.00 0.00 29 1009.1
20260504201554 61 107 5.2 9.6 0.00 0.00 0.00 33 1009.3
20260504200054 60 114 3.5 8.7 0.00 0.00 0.00 37 1009.7
20260504194549 61 218 1.7 5.2 0.00 0.00 0.00 36 1009.3
20260504193048 61 212 0.9 5.2 0.00 0.00 0.00 33 1009.3
20260504191557 62 301 0.9 7.0 0.00 0.00 0.00 32 1010.0
20260504190059 62 312 2.6 7.8 0.00 0.00 0.00 29 1009.7
20260504184611 65 315 0.9 3.5 0.00 0.00 0.00 23 1008.8
20260504183052 65 197 2.6 8.7 0.00 0.00 0.00 22 1008.6
20260504181550 66 164 4.3 8.7 0.00 0.00 0.00 22 1008.5
20260504180054 68 212 0.0 5.2 0.00 0.00 0.00 23 1008.4
20260504174552 67 202 3.5 8.7 0.00 0.00 0.00 23 1008.5
20260504173049 67 115 1.7 10.4 0.00 0.00 0.00 21 1008.9
20260504171552 66 123 2.6 9.6 0.00 0.00 0.00 23 1009.2
20260504081547 53 96 0.9 3.5 0.00 0.00 0.00 31 1011.1